Orbital Elements at Epoch 2459000.5 (2020-May-31.0) TDB
Reference: JPL 16 (heliocentric ecliptic J2000)
Element | Value | Uncertainty (1-sigma) | Units |
e | .06968460834200607 | 5.34e-08 | |
a | 2.793956933132564 | 2.5705e-08 | au |
q | 2.599261138522789 | 1.4598e-07 | au |
i | 3.491951374210407 | 5.7111e-06 | deg |
node | 237.6670636159177 | 7.8869e-05 | deg |
peri | 166.2228018714168 | 8.7525e-05 | deg |
M | 234.3087244499105 | 4.2608e-05 | deg |
tp | 2459596.066993382133 (2022-Jan-16.56699338) | 0.00020694 | TDB |
period | 1705.799520923195 4.67 | 2.354e-05 6.445e-08 | d yr |
n | .2110447303943223 | 2.9125e-09 | deg/d |
Q | 2.988652727742339 | 2.7496e-08 | au |
|
| | Orbit Determination Parameters
Additional Information
|